Location: Theydon Bois
(51.6750°N, 0.1050°E)
Time: 22:47:40
(UTC+00:00)

Amateur Radio Satellites - All Passes

Search period start: 20 January 2018 22:17
Search period end: 21 January 2018 22:17
Location: Theydon Bois, 51.6750°N, 0.1050°E

Satellite Date Start Highest point End Downlink Frequencies (MHz)
Time Altitude Azimuth
ESTCUBE 1 20 Jan 22:31:54 22:36:26 86° 254° (WSW) 22:41:00 437.505/2401.250
SPROUT 20 Jan 22:34:05 22:37:47 30° 64° (ENE) 22:41:31 437.525
VELOX 1 20 Jan 22:34:38 22:37:52 20° 59° (ENE) 22:41:05 145.980
QB50P2 20 Jan 22:43:36 22:45:25 12° 86° (E) 22:47:14 145.880/145.840
AIST 2D 20 Jan 22:50:25 22:53:37 32° 97° (E) 22:56:46 435.315
nSIGHT-1 20 Jan 22:54:13 22:57:23 79° 171° (S) 23:00:34 .
FO-29 20 Jan 22:55:02 22:56:34 11° 315° (NW) 22:58:05 435.910
ISS 20 Jan 23:05:46 23:09:02 76° 166° (SSE) 23:12:19 437.550
TIGRISAT 20 Jan 23:06:40 23:10:46 30° 297° (WNW) 23:14:51 435.000
DUCHIFAT 1 20 Jan 23:13:10 23:15:56 17° 89° (E) 23:18:41 145.980
EO-79 20 Jan 23:13:31 23:16:50 21° 92° (E) 23:20:08 145.935-145.965
LO-87 20 Jan 23:19:06 23:21:49 20° 268° (W) 23:24:33 145.935 - 145.965
UNISAT 6 20 Jan 23:22:13 23:25:49 22° 301° (WNW) 23:29:24 437.425
PRISM 20 Jan 23:40:14 23:44:04 41° 292° (WNW) 23:47:55 437.425
NO-84 20 Jan 23:42:29 23:44:55 25° 218° (SW) 23:47:24 435.350 FM
POLYITAN 1 20 Jan 23:47:54 23:52:02 43° 98° (E) 23:56:08 437.675
YUBILEINY 21 Jan 00:00:12 00:08:56 64° 286° (WNW) 00:17:42 435.215
NANOSAT C BR1 21 Jan 00:03:49 00:08:03 55° 101° (E) 00:12:14 145.865
VELOX 1 21 Jan 00:09:35 00:13:55 61° 258° (WSW) 00:18:17 145.980
SPROUT 21 Jan 00:09:39 00:13:35 36° 263° (W) 00:17:34 437.525
ESTCUBE 1 21 Jan 00:12:04 00:13:57 12° 274° (W) 00:15:50 437.505/2401.250
BUGSAT 1 21 Jan 00:15:42 00:18:40 18° 90° (E) 00:21:38 437.445
UKube-1 21 Jan 00:16:17 00:19:53 27° 62° (ENE) 00:23:31 .
QB50P2 21 Jan 00:17:31 00:21:50 88° 286° (WNW) 00:26:08 145.880/145.840
AIST 2D 21 Jan 00:23:52 00:26:37 22° 295° (WNW) 00:29:23 435.315
MOZHAYETS 4 21 Jan 00:25:48 00:28:05 14° 53° (NE) 00:30:24
DX 1 21 Jan 00:26:46 00:30:57 49° 69° (ENE) 00:35:08 434.975-435.025
O/OREOS (USA 219) 21 Jan 00:30:15 00:34:35 49° 112° (ESE) 00:38:57 437.305
nSIGHT-1 21 Jan 00:30:23 00:33:33 83° 192° (SSW) 00:36:45 .
BEESAT 21 Jan 00:32:43 00:34:12 11° 49° (NE) 00:35:41 436.000
Gurwin Techsat 1B 21 Jan 00:34:51 00:38:08 16° 87° (E) 00:41:23 435.225
ISS 21 Jan 00:42:14 00:45:31 86° 191° (S) 00:48:48 437.550
DUCHIFAT 1 21 Jan 00:47:46 00:52:01 65° 288° (WNW) 00:56:13 145.980
EO-79 21 Jan 00:48:42 00:52:52 50° 290° (WNW) 00:57:00 145.935-145.965
Oscar 19 21 Jan 00:50:45 00:55:07 27° 93° (E) 00:59:27 437.125/150
50 SAT 21 Jan 00:57:27 01:00:32 89° 236° (SW) 01:03:39 437.505
AO-91 21 Jan 01:12:26 01:16:35 44° 99° (E) 01:21:10 145.960
POLYITAN 1 21 Jan 01:24:03 01:27:37 26° 298° (WNW) 01:31:10 437.675
ITUPSAT 1 21 Jan 01:27:17 01:31:20 28° 61° (ENE) 01:35:24 437.325
NANOSAT C BR1 21 Jan 01:40:11 01:43:25 21° 300° (WNW) 01:46:38 145.865
BUGSAT 1 21 Jan 01:50:11 01:54:23 59° 289° (WNW) 01:58:34 437.445
UKube-1 21 Jan 01:51:41 01:55:45 41° 261° (W) 01:59:51 .
QB50P2 21 Jan 01:54:43 01:56:59 14° 305° (NW) 01:59:15 145.880/145.840
MOZHAYETS 4 21 Jan 01:59:50 02:04:28 75° 73° (ENE) 02:09:09
YUBILEINY 21 Jan 02:01:58 02:07:54 19° 313° (NW) 02:13:51 435.215
CUBESAT XI-V 21 Jan 02:03:08 02:07:03 27° 62° (ENE) 02:10:58 437.345
DX 1 21 Jan 02:04:00 02:07:23 22° 267° (W) 02:10:48 434.975-435.025
BEESAT 21 Jan 02:06:20 02:11:00 57° 69° (ENE) 02:15:42 436.000
nSIGHT-1 21 Jan 02:06:39 02:09:31 32° 208° (SSW) 02:12:24 .
O/OREOS (USA 219) 21 Jan 02:10:20 02:14:14 28° 312° (NW) 02:18:08 437.305
Gurwin Techsat 1B 21 Jan 02:13:28 02:18:51 89° 266° (W) 02:24:10 435.225
ISS 21 Jan 02:18:47 02:21:49 35° 207° (SSW) 02:24:51 437.550
DUCHIFAT 1 21 Jan 02:25:46 02:26:50 11° 308° (NW) 02:27:55 145.980
Oscar 19 21 Jan 02:29:41 02:34:45 54° 292° (WNW) 02:39:45 437.125/150
AO-7 21 Jan 02:36:23 02:43:36 31° 93° (E) 02:50:45 .
AO-91 21 Jan 02:49:19 02:52:55 27° 295° (WNW) 02:56:50 145.960
ITUPSAT 1 21 Jan 03:04:19 03:08:56 49° 260° (W) 03:13:37 437.325
BUGSAT 1 21 Jan 03:28:45 03:28:53 10° 308° (NW) 03:29:00 437.445
KKS-1 21 Jan 03:30:53 03:34:47 31° 64° (ENE) 03:38:42 437.445
ITAMSAT 1 21 Jan 03:35:16 03:40:14 43° 98° (E) 03:45:11 435.822/435.867
MOZHAYETS 4 21 Jan 03:39:14 03:42:11 16° 272° (W) 03:45:08
CUBESAT XI-V 21 Jan 03:39:39 03:44:12 48° 261° (W) 03:48:45 437.345
DOVE 4 21 Jan 03:43:57 03:46:37 16° 89° (E) 03:49:22 437.250
BEESAT 21 Jan 03:45:23 03:49:08 23° 268° (W) 03:52:54 436.000
STARS 21 Jan 03:47:59 03:51:16 21° 59° (ENE) 03:54:35 437.465
Gurwin Techsat 1B 21 Jan 03:54:28 03:58:07 19° 307° (NW) 04:01:45 435.225
Oscar 19 21 Jan 04:11:09 04:12:59 12° 313° (NW) 04:14:49 437.125/150
AO-7 21 Jan 04:28:47 04:37:11 78° 295° (WNW) 04:45:31 .
SO-50 21 Jan 04:54:26 04:57:51 22° 115° (ESE) 05:01:18 436.795
STRAND 1 21 Jan 04:57:44 05:01:26 21° 56° (NE) 05:05:09 437.568
KKS-1 21 Jan 05:07:11 05:11:16 36° 262° (W) 05:15:24 437.445
CUTE-I 21 Jan 05:08:25 05:11:49 17° 87° (E) 05:15:13 437.470
KAITUO 1B 21 Jan 05:13:30 05:15:09 12° 88° (E) 05:16:47 145.475/437.950
XW-2F 21 Jan 05:14:26 05:16:53 16° 90° (E) 05:19:19 145.980 - 146.000
ITAMSAT 1 21 Jan 05:14:57 05:19:37 35° 298° (WNW) 05:24:17 435.822/435.867
DOVE 4 21 Jan 05:20:30 05:24:45 69° 287° (WNW) 05:29:14 437.250
STARS 21 Jan 05:22:58 05:27:16 57° 259° (WSW) 05:31:36 437.465
XW-2D 21 Jan 05:23:38 05:26:40 23° 93° (E) 05:29:40 145.860 - 145.880
NUDT-PHONESAT 21 Jan 05:24:10 05:26:24 15° 90° (E) 05:28:37 437.300
M-CUBED/EXP-1 PRIME 21 Jan 05:28:25 05:31:54 89° 113° (ESE) 05:35:11 437.505
FO-29 21 Jan 05:40:36 05:45:50 27° 58° (ENE) 05:50:36 435.910
XW-2B 21 Jan 05:40:58 05:44:25 32° 96° (E) 05:47:48 145.730 - 145.750
LilacSat-2 21 Jan 06:08:50 06:12:38 71° 102° (ESE) 06:16:24 437.200
XW-2C 21 Jan 06:11:06 06:14:54 70° 102° (ESE) 06:18:38 145.795 - 145.815
AO-7 21 Jan 06:22:14 06:28:49 27° 318° (NW) 06:35:23 .
HO-68 21 Jan 06:28:03 06:34:44 40° 96° (E) 06:41:21 435.675
RS-15 21 Jan 06:29:12 06:37:54 23° 98° (E) 06:46:28 29.354- 29.394
SEEDS 21 Jan 06:30:58 06:34:19 23° 92° (E) 06:37:39 437.485
SO-50 21 Jan 06:33:23 06:37:52 70° 315° (NW) 06:42:28 436.795
STRAND 1 21 Jan 06:34:59 06:40:05 78° 255° (WSW) 06:45:14 437.568
CUTE 1.7 + AOD 2 21 Jan 06:43:03 06:47:08 46° 98° (E) 06:51:10 437.475
KAITUO 1B 21 Jan 06:45:52 06:49:34 67° 286° (WNW) 06:53:13 145.475/437.950
CUTE-I 21 Jan 06:47:13 06:52:35 87° 286° (WNW) 06:57:56 437.470
XW-2F 21 Jan 06:47:38 06:51:17 50° 289° (WNW) 06:54:54 145.980 - 146.000
CUBEBUG 2 21 Jan 06:54:41 06:59:15 43° 97° (E) 07:03:47 437.445
NUDT-PHONESAT 21 Jan 06:56:57 07:00:33 53° 289° (WNW) 07:04:08 437.300
XW-2D 21 Jan 06:57:27 07:00:57 36° 292° (WNW) 07:04:25 145.860 - 145.880
TIGRISAT 21 Jan 07:00:04 07:01:50 12° 52° (NE) 07:03:38 435.000
UWE-3 21 Jan 07:00:18 07:04:27 30° 94° (E) 07:08:32 435.000/436.395/437.385
DOVE 4 21 Jan 07:00:26 07:01:45 11° 306° (NW) 07:03:05 437.250
M-CUBED/EXP-1 PRIME 21 Jan 07:04:37 07:05:42 11° 312° (NW) 07:06:47 437.505
UNISAT 6 21 Jan 07:14:03 07:16:54 17° 56° (NE) 07:19:47 437.425
XW-2B 21 Jan 07:15:18 07:18:29 26° 295° (WNW) 07:21:39 145.730 - 145.750
XW-2A 21 Jan 07:17:41 07:20:23 22° 94° (E) 07:23:02 145.665 - 145.685
O/OREOS (USA 219) 21 Jan 07:18:17 07:19:05 10° 29° (NNE) 07:19:51 437.305
FO-29 21 Jan 07:23:52 07:30:33 72° 256° (WSW) 07:36:29 435.910
ZACube-1 21 Jan 07:24:05 07:28:03 28° 93° (E) 07:31:56 437.345
AO-73 21 Jan 07:30:50 07:34:49 28° 93° (E) 07:38:42 145.935
LilacSat-2 21 Jan 07:44:20 07:46:24 14° 302° (WNW) 07:48:28 437.200
XW-2C 21 Jan 07:46:30 07:48:35 14° 301° (WNW) 07:50:39 145.795 - 145.815
AAUSAT CUBESAT 2 21 Jan 07:47:32 07:51:36 58° 100° (E) 07:55:39 437.432
Oscar 11 21 Jan 08:04:00 08:08:02 36° 96° (E) 08:12:01 .
SEEDS 21 Jan 08:06:14 08:10:12 44° 291° (WNW) 08:14:09 437.485
YUBILEINY 21 Jan 08:07:01 08:14:09 27° 55° (NE) 08:21:13 435.215
SO-50 21 Jan 08:15:28 08:19:06 23° 338° (NNW) 08:22:47 436.795
HO-68 21 Jan 08:15:46 08:22:42 55° 297° (WNW) 08:29:37 435.675
AO-7 21 Jan 08:16:00 08:18:47 12° 344° (NNW) 08:21:36 .
STRAND 1 21 Jan 08:17:51 08:20:08 13° 275° (W) 08:22:27 437.568
CUTE 1.7 + AOD 2 21 Jan 08:19:21 08:22:44 24° 298° (WNW) 08:26:05 437.475
DELFI C3 21 Jan 08:25:09 08:26:53 13° 87° (E) 08:28:37 145.870
CUTE-I 21 Jan 08:28:23 08:31:57 18° 307° (NW) 08:35:30 437.470
CUBEBUG 2 21 Jan 08:31:35 08:35:43 30° 296° (WNW) 08:39:50 437.445
TIGRISAT 21 Jan 08:33:14 08:37:39 67° 72° (ENE) 08:42:13 435.000
RS-15 21 Jan 08:36:03 08:48:16 72° 123° (ESE) 09:00:14 29.354- 29.394
UWE-3 21 Jan 08:36:35 08:41:00 41° 293° (WNW) 08:45:21 435.000/436.395/437.385
UNISAT 6 21 Jan 08:48:32 08:53:00 83° 257° (WSW) 08:57:37 437.425
XW-2A 21 Jan 08:50:06 08:53:06 30° 293° (WNW) 08:56:06 145.665 - 145.685
O/OREOS (USA 219) 21 Jan 08:55:36 08:59:48 38° 52° (NE) 09:04:00 437.305
PRISM 21 Jan 08:59:14 09:02:55 34° 66° (ENE) 09:06:38 437.425
ZACube-1 21 Jan 09:00:07 09:04:27 42° 293° (WNW) 09:08:44 437.345
Max Valier Satellite 21 Jan 09:02:27 09:05:13 20° 92° (E) 09:07:58 145.860
AO-73 21 Jan 09:06:52 09:11:10 41° 293° (WNW) 09:15:23 145.935
FO-29 21 Jan 09:13:06 09:16:31 15° 275° (W) 09:19:46 435.910
POLYITAN 1 21 Jan 09:13:17 09:14:22 11° 52° (NE) 09:15:27 437.675
BEESAT 3 21 Jan 09:16:32 09:19:47 24° 118° (ESE) 09:23:02 437.485
EO-88 21 Jan 09:20:56 09:23:43 20° 93° (E) 09:26:29 145.990 - 145.960
AAUSAT CUBESAT 2 21 Jan 09:23:48 09:26:41 19° 300° (WNW) 09:29:34 437.432
NANOSAT C BR1 21 Jan 09:27:49 09:29:45 13° 54° (NE) 09:31:41 145.865
AIST 2D 21 Jan 09:29:24 09:32:27 28° 67° (ENE) 09:35:31 435.315
PCSat 21 Jan 09:32:14 09:37:09 36° 115° (ESE) 09:42:05 145.827
Oscar 11 21 Jan 09:40:18 09:44:06 30° 295° (WNW) 09:47:52 .
QB50P2 21 Jan 09:40:38 09:43:43 20° 59° (ENE) 09:46:48 145.880/145.840
SO-50 21 Jan 09:58:08 10:01:07 17° 3° (N) 10:04:08 436.795
DELFI C3 21 Jan 09:58:12 10:02:08 75° 286° (WNW) 10:06:02 145.870
YUBILEINY 21 Jan 10:03:31 10:12:20 88° 81° (E) 10:21:03 435.215
HO-68 21 Jan 10:04:47 10:09:00 17° 320° (NW) 10:13:14 435.675
BEESAT 2 21 Jan 10:04:59 10:08:06 22° 116° (ESE) 10:11:14 435.950
AO-7 21 Jan 10:05:45 10:07:57 11° 12° (NNE) 10:10:09 .
DUCHIFAT 1 21 Jan 10:09:34 10:13:01 25° 62° (ENE) 10:16:29 145.980
EO-79 21 Jan 10:10:38 10:14:23 31° 65° (ENE) 10:18:10 145.935-145.965
TIGRISAT 21 Jan 10:11:51 10:14:50 18° 272° (W) 10:17:54 435.000
ESTCUBE 1 21 Jan 10:20:10 10:22:35 14° 87° (E) 10:24:57 437.505/2401.250
UNISAT 6 21 Jan 10:28:50 10:30:30 12° 276° (W) 10:32:11 437.425
PRISM 21 Jan 10:34:44 10:38:14 28° 265° (W) 10:41:46 437.425
O/OREOS (USA 219) 21 Jan 10:35:09 10:39:10 33° 252° (WSW) 10:43:09 437.305
Max Valier Satellite 21 Jan 10:35:42 10:39:13 41° 291° (WNW) 10:42:42 145.860
Oscar 19 21 Jan 10:36:39 10:39:19 14° 50° (NE) 10:42:00 437.125/150
LO-87 21 Jan 10:39:33 10:42:29 22° 93° (E) 10:45:24 145.935 - 145.965
POLYITAN 1 21 Jan 10:45:06 10:49:19 65° 71° (ENE) 10:53:34 437.675
RS-15 21 Jan 10:49:24 11:01:29 57° 331° (NNW) 11:13:14 29.354- 29.394
BEESAT 3 21 Jan 10:53:08 10:57:04 53° 318° (NW) 11:00:59 437.485
EO-88 21 Jan 10:54:06 10:57:30 38° 291° (WNW) 11:00:52 145.990 - 145.960
NANOSAT C BR1 21 Jan 11:00:32 11:04:46 81° 72° (ENE) 11:09:02 145.865
AIST 2D 21 Jan 11:02:37 11:05:36 26° 265° (W) 11:08:37 435.315
BUGSAT 1 21 Jan 11:10:11 11:13:35 25° 62° (ENE) 11:17:01 437.445
QB50P2 21 Jan 11:14:54 11:19:06 60° 258° (WSW) 11:23:21 145.880/145.840
PCSat 21 Jan 11:15:08 11:20:25 52° 316° (NW) 11:25:45 145.827
DELFI C3 21 Jan 11:35:13 11:36:09 11° 305° (NW) 11:37:06 145.870
SO-50 21 Jan 11:39:02 11:43:01 27° 27° (NNE) 11:47:03 436.795
AO-85 21 Jan 11:39:46 11:43:12 27° 117° (ESE) 11:46:52 145.980
BEESAT 2 21 Jan 11:41:29 11:45:28 60° 315° (NW) 11:49:31 435.950
DUCHIFAT 1 21 Jan 11:44:26 11:48:28 44° 261° (W) 11:52:33 145.980
EO-79 21 Jan 11:46:15 11:50:06 33° 264° (W) 11:54:00 145.935-145.965
SPROUT 21 Jan 11:49:28 11:53:06 26° 94° (E) 11:56:43 437.525
AO-7 21 Jan 11:51:36 11:57:45 24° 39° (NE) 12:03:54 .
VELOX 1 21 Jan 11:54:43 11:57:39 17° 90° (E) 12:00:36 145.980
ESTCUBE 1 21 Jan 11:55:28 11:59:59 83° 287° (WNW) 12:04:28 437.505/2401.250
Gurwin Techsat 1B 21 Jan 12:00:39 12:05:39 43° 65° (ENE) 12:10:40 435.225
YUBILEINY 21 Jan 12:01:24 12:08:02 25° 284° (WNW) 12:14:38 435.215
Oscar 19 21 Jan 12:12:35 12:17:44 66° 70° (ENE) 12:22:55 437.125/150
LO-87 21 Jan 12:12:38 12:15:58 34° 292° (WNW) 12:19:17 145.935 - 145.965
AO-91 21 Jan 12:15:36 12:18:57 62° 72° (ENE) 12:22:31 145.960
POLYITAN 1 21 Jan 12:22:46 12:25:31 17° 271° (W) 12:28:18 437.675
BEESAT 3 21 Jan 12:32:42 12:35:24 17° 339° (NNW) 12:38:06 437.485
NANOSAT C BR1 21 Jan 12:38:58 12:41:02 13° 273° (W) 12:43:07 145.865
BUGSAT 1 21 Jan 12:44:53 12:48:45 41° 262° (W) 12:52:43 437.445
PCSat 21 Jan 13:01:04 13:05:03 20° 340° (NNW) 13:09:03 145.827
RS-15 21 Jan 13:05:21 13:16:51 44° 4° (N) 13:27:50 29.354- 29.394
SO-50 21 Jan 13:19:20 13:24:02 87° 223° (SW) 13:28:48 436.795
AO-85 21 Jan 13:19:20 13:23:22 51° 320° (NW) 13:27:44 145.980
ITAMSAT 1 21 Jan 13:20:58 13:24:52 22° 56° (NE) 13:28:46 435.822/435.867
BEESAT 2 21 Jan 13:21:05 13:23:58 18° 338° (NNW) 13:26:52 435.950
SPROUT 21 Jan 13:25:04 13:29:07 41° 292° (WNW) 13:33:10 437.525
VELOX 1 21 Jan 13:30:10 13:34:33 65° 288° (WNW) 13:38:54 145.980
UKube-1 21 Jan 13:33:16 13:36:36 21° 92° (E) 13:39:56 .
ESTCUBE 1 21 Jan 13:33:44 13:36:06 14° 306° (NW) 13:38:27 437.505/2401.250
50 SAT 21 Jan 13:38:18 13:41:04 29° 97° (E) 13:43:50 437.505
Gurwin Techsat 1B 21 Jan 13:40:52 13:45:42 35° 265° (W) 13:50:34 435.225
AO-7 21 Jan 13:40:53 13:49:08 67° 62° (ENE) 13:57:26 .
DX 1 21 Jan 13:45:18 13:49:27 42° 99° (E) 13:53:35 434.975-435.025
MOZHAYETS 4 21 Jan 13:51:10 13:53:03 12° 85° (E) 13:54:56
Oscar 19 21 Jan 13:53:31 13:57:31 22° 270° (W) 14:01:32 437.125/150
AO-91 21 Jan 13:54:54 13:56:00 11° 273° (W) 13:57:06 145.960
BEESAT 3 21 Jan 14:12:39 14:14:25 12° 3° (N) 14:16:10 437.485
M-CUBED/EXP-1 PRIME 21 Jan 14:44:13 14:48:04 36° 61° (ENE) 14:51:41 437.505
PCSat 21 Jan 14:47:10 14:50:32 16° 6° (N) 14:53:52 145.827
DOVE 4 21 Jan 14:54:28 14:58:03 28° 65° (ENE) 15:01:38 437.250
ITAMSAT 1 21 Jan 14:58:40 15:03:50 74° 256° (WSW) 15:09:03 435.822/435.867
ITUPSAT 1 21 Jan 14:59:13 15:03:25 29° 95° (E) 15:07:34 437.325
CUTE-I 21 Jan 15:00:14 15:01:13 10° 44° (NE) 15:02:11 437.470
SO-50 21 Jan 15:00:56 15:03:53 17° 248° (WSW) 15:06:50 436.795
BEESAT 2 21 Jan 15:01:16 15:03:10 13° 2° (N) 15:05:04 435.950
AO-85 21 Jan 15:01:38 15:04:47 19° 344° (NNW) 15:08:07 145.980
UKube-1 21 Jan 15:08:43 15:12:54 50° 291° (WNW) 15:17:04 .
VELOX 1 21 Jan 15:08:46 15:10:09 11° 308° (NW) 15:11:33 145.980
50 SAT 21 Jan 15:10:16 15:12:39 20° 296° (WNW) 15:15:01 437.505
HO-68 21 Jan 15:18:44 15:22:46 16° 39° (NE) 15:26:48 435.675
RS-15 21 Jan 15:19:51 15:31:49 65° 36° (NE) 15:43:07 29.354- 29.394
DX 1 21 Jan 15:21:48 15:25:29 27° 298° (WNW) 15:29:07 434.975-435.025
LilacSat-2 21 Jan 15:24:41 15:25:32 11° 55° (NE) 15:26:22 437.200
MOZHAYETS 4 21 Jan 15:26:17 15:30:58 83° 105° (ESE) 15:35:35
XW-2C 21 Jan 15:26:47 15:27:14 10° 55° (NE) 15:27:40 145.795 - 145.815
CUBESAT XI-V 21 Jan 15:30:39 15:34:40 28° 94° (E) 15:38:39 437.345
AO-7 21 Jan 15:34:51 15:42:25 37° 264° (W) 15:50:04 .
BEESAT 21 Jan 15:38:20 15:43:07 62° 102° (ESE) 15:47:52 436.000
BEESAT 3 21 Jan 15:50:11 15:53:19 21° 27° (NNE) 15:56:24 437.485
KAITUO 1B 21 Jan 15:58:19 16:00:27 15° 59° (ENE) 16:02:35 145.475/437.950
XW-2F 21 Jan 16:00:07 16:02:51 19° 62° (ENE) 16:05:34 145.980 - 146.000
NUDT-PHONESAT 21 Jan 16:08:05 16:10:32 17° 61° (ENE) 16:13:00 437.300
CUTE 1.7 + AOD 2 21 Jan 16:08:38 16:09:34 11° 53° (NE) 16:10:29 437.475
XW-2D 21 Jan 16:09:40 16:12:50 25° 65° (ENE) 16:16:01 145.860 - 145.880
M-CUBED/EXP-1 PRIME 21 Jan 16:18:42 16:22:28 30° 257° (WSW) 16:26:02 437.505
CUBEBUG 2 21 Jan 16:24:43 16:26:16 12° 51° (NE) 16:27:51 437.445
XW-2B 21 Jan 16:26:53 16:30:23 35° 68° (ENE) 16:33:54 145.730 - 145.750
PCSat 21 Jan 16:31:02 16:35:44 28° 32° (NNE) 16:40:25 145.827
DOVE 4 21 Jan 16:31:48 16:35:42 35° 263° (W) 16:39:33 437.250
CUTE-I 21 Jan 16:35:00 16:40:02 46° 65° (ENE) 16:45:06 437.470
ITUPSAT 1 21 Jan 16:36:48 16:41:24 45° 294° (WNW) 16:45:58 437.325
NO-84 21 Jan 16:38:01 16:39:43 14° 136° (SE) 16:41:24 435.350 FM
BEESAT 2 21 Jan 16:39:10 16:42:18 21° 26° (NNE) 16:45:24 435.950
ITAMSAT 1 21 Jan 16:42:08 16:44:13 12° 275° (W) 16:46:20 435.822/435.867
AO-85 21 Jan 16:43:51 16:46:51 17° 9° (N) 16:50:00 145.980
KKS-1 21 Jan 16:52:16 16:56:08 28° 95° (E) 16:59:59 437.445
LilacSat-2 21 Jan 16:55:15 16:59:07 76° 73° (ENE) 17:02:58 437.200
XW-2C 21 Jan 16:56:52 17:00:42 74° 73° (ENE) 17:04:32 145.795 - 145.815
HO-68 21 Jan 17:02:08 17:09:00 52° 62° (ENE) 17:15:53 435.675
MOZHAYETS 4 21 Jan 17:04:32 17:07:31 17° 304° (NW) 17:10:31
STARS 21 Jan 17:07:23 17:10:23 18° 90° (E) 17:13:22 437.465
CUBESAT XI-V 21 Jan 17:07:49 17:12:11 42° 293° (WNW) 17:16:31 437.345
AAUSAT CUBESAT 2 21 Jan 17:10:08 17:11:36 12° 55° (NE) 17:13:05 437.432
BEESAT 21 Jan 17:16:46 17:20:30 23° 302° (WNW) 17:24:14 436.000
SEEDS 21 Jan 17:27:21 17:31:06 32° 66° (ENE) 17:34:50 437.485
BEESAT 3 21 Jan 17:27:23 17:31:22 88° 50° (NE) 17:35:15 437.485
KAITUO 1B 21 Jan 17:30:12 17:33:57 67° 257° (WSW) 17:37:43 145.475/437.950
RS-15 21 Jan 17:32:55 17:44:13 56° 244° (WSW) 17:54:56 29.354- 29.394
XW-2F 21 Jan 17:32:56 17:36:38 49° 260° (W) 17:40:22 145.980 - 146.000
NUDT-PHONESAT 21 Jan 17:40:20 17:44:01 55° 260° (W) 17:47:41 437.300
CUTE 1.7 + AOD 2 21 Jan 17:40:21 17:44:34 64° 72° (ENE) 17:48:48 437.475
XW-2D 21 Jan 17:43:21 17:46:53 35° 263° (W) 17:50:25 145.860 - 145.880
XW-2A 21 Jan 17:53:45 17:56:16 19° 63° (ENE) 17:58:46 145.665 - 145.685
CUBEBUG 2 21 Jan 17:57:35 18:01:58 64° 72° (ENE) 18:06:32 437.445
XW-2B 21 Jan 18:01:27 18:04:38 24° 266° (W) 18:07:49 145.730 - 145.750
UWE-3 21 Jan 18:01:59 18:06:14 44° 68° (ENE) 18:10:37 435.000/436.395/437.385
NO-84 21 Jan 18:13:31 18:16:29 76° 153° (SSE) 18:19:20 435.350 FM
PCSat 21 Jan 18:14:18 18:19:46 85° 233° (SW) 18:25:12 145.827
CUTE-I 21 Jan 18:15:29 18:20:14 33° 265° (W) 18:25:01 437.470
BEESAT 2 21 Jan 18:16:33 18:20:37 80° 47° (NE) 18:24:36 435.950
AO-85 21 Jan 18:24:21 18:28:35 32° 32° (NNE) 18:33:08 145.980
ZACube-1 21 Jan 18:24:30 18:28:41 40° 67° (ENE) 18:32:59 437.345
KKS-1 21 Jan 18:28:38 18:32:48 41° 294° (WNW) 18:36:59 437.445
AO-73 21 Jan 18:30:53 18:35:07 41° 67° (ENE) 18:39:24 145.935
LilacSat-2 21 Jan 18:32:17 18:33:53 12° 273° (W) 18:35:28 437.200
XW-2C 21 Jan 18:33:41 18:35:21 12° 273° (W) 18:37:01 145.795 - 145.815
STRAND 1 21 Jan 18:40:18 18:44:29 24° 92° (E) 18:48:39 437.568
AAUSAT CUBESAT 2 21 Jan 18:42:13 18:46:21 76° 73° (ENE) 18:50:29 437.432
STARS 21 Jan 18:42:45 18:47:09 65° 288° (WNW) 18:51:31 437.465
HO-68 21 Jan 18:50:12 18:56:54 42° 263° (W) 19:03:40 435.675
SEEDS 21 Jan 19:02:56 19:06:45 32° 265° (W) 19:10:34 437.485
Oscar 11 21 Jan 19:03:30 19:07:45 54° 70° (ENE) 19:12:01 .
BEESAT 3 21 Jan 19:06:18 19:08:17 14° 248° (WSW) 19:10:15 437.485
DELFI C3 21 Jan 19:15:09 19:17:37 16° 59° (ENE) 19:20:04 145.870
CUTE 1.7 + AOD 2 21 Jan 19:18:03 19:20:50 17° 271° (W) 19:23:36 437.475
XW-2A 21 Jan 19:25:29 19:28:42 38° 261° (W) 19:31:58 145.665 - 145.685
CUBEBUG 2 21 Jan 19:35:58 19:39:03 18° 272° (W) 19:42:14 437.445
UWE-3 21 Jan 19:39:03 19:42:51 27° 268° (W) 19:46:46 435.000/436.395/437.385
Max Valier Satellite 21 Jan 19:46:10 19:49:01 21° 63° (ENE) 19:51:52 145.860
RS-15 21 Jan 19:48:21 19:53:35 14° 269° (W) 19:58:43 29.354- 29.394
NO-84 21 Jan 19:51:00 19:53:47 41° 355° (N) 19:56:29 435.350 FM
BEESAT 2 21 Jan 19:55:21 19:57:48 16° 247° (WSW) 20:00:13 435.950
PCSat 21 Jan 19:58:58 20:02:24 17° 254° (WSW) 20:05:50 145.827
ZACube-1 21 Jan 20:01:10 20:05:04 29° 267° (W) 20:09:04 437.345
EO-88 21 Jan 20:03:26 20:06:15 21° 63° (ENE) 20:09:04 145.990 - 145.960
AO-85 21 Jan 20:04:34 20:09:25 70° 232° (SW) 20:14:34 145.980
AO-73 21 Jan 20:07:34 20:11:27 28° 267° (W) 20:15:25 145.935
FO-29 21 Jan 20:12:17 20:17:30 60° 101° (ESE) 20:22:39 435.910
STRAND 1 21 Jan 20:18:59 20:24:02 58° 291° (WNW) 20:29:05 437.568
AAUSAT CUBESAT 2 21 Jan 20:20:15 20:22:20 13° 273° (W) 20:24:24 437.432
STARS 21 Jan 20:21:12 20:22:40 11° 308° (NW) 20:24:06 437.465
TIGRISAT 21 Jan 20:21:31 20:22:42 11° 83° (E) 20:23:54 435.000
nSIGHT-1 21 Jan 20:22:40 20:24:52 18° 144° (SE) 20:27:05 .
UNISAT 6 21 Jan 20:35:34 20:38:30 16° 87° (E) 20:41:25 437.425
ISS 21 Jan 20:38:28 20:40:45 18° 143° (SE) 20:43:03 437.550
Oscar 11 21 Jan 20:40:56 20:44:12 20° 269° (W) 20:47:30 .
DELFI C3 21 Jan 20:48:02 20:51:55 64° 258° (WSW) 20:55:49 145.870
YUBILEINY 21 Jan 21:17:27 21:23:45 23° 75° (ENE) 21:30:01 435.215
Max Valier Satellite 21 Jan 21:19:01 21:22:35 42° 261° (W) 21:26:11 145.860
LO-87 21 Jan 21:20:30 21:23:17 22° 64° (ENE) 21:26:06 145.935 - 145.965
ESTCUBE 1 21 Jan 21:24:10 21:27:53 26° 62° (ENE) 21:31:37 437.505/2401.250
NO-84 21 Jan 21:28:25 21:31:12 55° 15° (NNE) 21:34:01 435.350 FM
EO-88 21 Jan 21:36:13 21:39:40 39° 262° (W) 21:43:09 145.990 - 145.960
AO-85 21 Jan 21:46:37 21:49:09 14° 250° (WSW) 21:51:44 145.980
TIGRISAT 21 Jan 21:55:30 22:00:14 72° 103° (ESE) 22:04:56 435.000
nSIGHT-1 21 Jan 21:57:28 22:00:36 60° 162° (SSE) 22:03:44 .
FO-29 21 Jan 21:58:05 22:02:17 25° 303° (WNW) 22:06:24 435.910
STRAND 1 21 Jan 22:00:05 22:02:14 13° 312° (NW) 22:04:22 437.568
PRISM 21 Jan 22:09:53 22:13:20 26° 95° (E) 22:16:46 437.425
